Regional Weather Roundup
Issued by NWS

Home | Current Version | Previous Version | Graphics & Text | Print | Product List | Glossary On
Versions: 1 2 3 4 5 6 7 8 9 10 11 12 13 14 15 16 17 18 19 20 21 22 23 24 25 26 27 28 29 30 31 32 33 34 35 36 37 38 39 40 41 42 43 44 45 46 47 48 49 50
928
ASUS45 KCYS 171210
RWRWY

WYOMING REGIONAL WEATHER ROUNDUP
NATIONAL WEATHER SERVICE CHEYENNE WY
500 AM MST TUE JAN 17 2017

NOTE:  "FAIR" INDICATES FEW OR NO CLOUDS BELOW 12,000 FEET
WITH NO SIGNIFICANT WEATHER AND/OR OBSTRUCTIONS TO VISIBILITY.

WYZ001-171300-
YELLOWSTONE NATIONAL PARK

CITY           SKY/WX    TMP DP  RH WIND       PRES   REMARKS
LK YELLOWSTONE   N/A    -11 -15  82 CALM      30.15F
6HR MIN TEMP: -12; 6HR MAX TEMP:  -7;

W YELLOWSTONE  NOT AVBL

$$
WYZ002>013-054>058-071-098>099-171300-
NORTHERN WYOMING

CITY           SKY/WX    TMP DP  RH WIND       PRES   REMARKS
JACKSON        FAIR      -9 -13  84 NE5       30.21S WCI -21
CODY           FAIR       9   1  70 CALM      29.97F
GREYBULL       FAIR     -14 -19  79 CALM      30.07S
6HR MIN TEMP: -15; 6HR MAX TEMP: -10;

WORLAND        FAIR      -9 -11  91 S5        30.03F WCI -20
6HR MIN TEMP: -10; 6HR MAX TEMP:  -3;

SHERIDAN       FAIR       8   0  69 VRB6      29.90F WCI  -2
6HR MIN TEMP:   3; 6HR MAX TEMP:  13;

BUFFALO        FAIR      34   0  23 SW7       29.92S WCI  28
6HR MIN TEMP:  23; 6HR MAX TEMP:  34;

GILLETTE       FAIR      17   6  62 CALM      29.93F
6HR MIN TEMP:   8; 6HR MAX TEMP:  19;

HULETT         FAIR      16   7  67 MISG      29.93F
NEWCASTLE      FAIR      12   5  73 CALM      30.00S

$$
WYZ014>020-022>026-101>103-171300-
CENTRAL WYOMING

CITY           SKY/WX    TMP DP  RH WIND       PRES   REMARKS
BIG PINEY      FAIR     -18 -22  82 CALM      30.13F
6HR MIN TEMP: -23; 6HR MAX TEMP: -12;

PINEDALE       FAIR     -17 -22  76 CALM      30.13S
DUBOIS         NOT AVBL
LANDER         FAIR       0  -2  91 SE3       30.04F FOG
6HR MIN TEMP:   0; 6HR MAX TEMP:   8;

RIVERTON       FOG       -3  -6  87 CALM      30.05F VSB 1/4
6HR MIN TEMP:  -6; 6HR MAX TEMP:   3;

CASPER         FAIR      18   5  57 SW23G29   30.01S WCI   0
6HR MIN TEMP:  18; 6HR MAX TEMP:  23;

DOUGLAS        FAIR       7   2  80 CALM      30.00F
6HR MIN TEMP:   5; 6HR MAX TEMP:  13;


$$
WYZ021-027>030-104>119-171300-
SOUTHERN WYOMING

CITY           SKY/WX    TMP DP  RH WIND       PRES   REMARKS
EVANSTON       FAIR       7   1  76 CALM      30.13S
6HR MIN TEMP:   3; 6HR MAX TEMP:  11;

ROCK SPRINGS   FAIR      -5 -11  75 NW3       30.13F HAZE
6HR MIN TEMP:  -9; 6HR MAX TEMP:  -1;

RAWLINS        FAIR      -4 -11  72 CALM      30.11S
6HR MIN TEMP:  -5; 6HR MAX TEMP:   4;

LARAMIE        FOG       -2  -6  83 CALM      30.03F VSB 3/4
6HR MIN TEMP:  -5; 6HR MAX TEMP:   7;

CHEYENNE       FAIR      15   8  73 W7        30.01F WCI   5
6HR MIN TEMP:  13; 6HR MAX TEMP:  18;

TORRINGTON     FAIR      12   8  84 SE5       30.02F WCI   4
6HR MIN TEMP:  11; 6HR MAX TEMP:  24;


$$




USA.gov is the U.S. government's official web portal to all federal, state and local government web resources and services.